Location: Voyageurs National Park
(48.5020°N, 92.9292°W)
Time: 06:15:10
(UTC-05:00)

Amateur Radio Satellites - All Passes

Search period start: 26 March 2017 05:45
Search period end: 27 March 2017 05:45
Location: Voyageurs National Park, 48.5020°N, 92.9292°W

Satellite Date Start Highest point End Downlink Frequencies (MHz)
Time Altitude Azimuth
M-CUBED/EXP-1 PRIME 26 Mar 05:46:05 05:49:39 42° 63° (ENE) 05:53:32 437.505
KKS-1 26 Mar 06:14:08 06:16:37 15° 271° (W) 06:19:08 437.445
XW-2B 26 Mar 06:14:29 06:15:24 11° 88° (E) 06:16:19 145.730 - 145.750
BEESAT 3 26 Mar 06:17:22 06:20:38 23° 36° (NE) 06:23:53 437.485
STRAND 1 26 Mar 06:19:14 06:23:06 22° 59° (ENE) 06:27:00 437.568
YUBILEINY 26 Mar 06:21:33 06:25:23 14° 70° (ENE) 06:29:13 435.215
XW-2C 26 Mar 06:23:40 06:25:42 14° 90° (E) 06:27:43 145.795 - 145.815
DOVE 4 26 Mar 06:25:41 06:30:14 28° 92° (E) 06:34:44 437.250
BEESAT 2 26 Mar 06:31:55 06:34:42 17° 30° (NNE) 06:37:29 435.950
AO-7 26 Mar 06:45:56 06:53:19 38° 306° (NW) 07:00:42 .
ITAMSAT 1 26 Mar 06:46:02 06:48:23 13° 308° (NW) 06:50:44 435.822/435.867
CUTE-I 26 Mar 06:50:28 06:55:07 29° 94° (E) 06:59:43 437.470
STARS 26 Mar 06:52:19 06:54:20 13° 272° (W) 06:56:23 437.465
AO-85 26 Mar 06:53:56 06:57:24 30° 241° (WSW) 07:00:55 145.980
XW-2F 26 Mar 07:14:47 07:18:26 48° 99° (E) 07:22:03 145.980 - 146.000
LilacSat-2 26 Mar 07:15:13 07:18:56 53° 100° (E) 07:22:37 437.200
M-CUBED/EXP-1 PRIME 26 Mar 07:21:36 07:24:22 19° 263° (W) 07:27:18 437.505
HO-68 26 Mar 07:27:24 07:32:15 19° 88° (E) 07:37:05 435.675
XW-2D 26 Mar 07:40:23 07:44:09 79° 285° (WNW) 07:47:53 145.860 - 145.880
NUDT-PHONESAT 26 Mar 07:41:41 07:45:24 85° 104° (ESE) 07:49:04 437.300
XW-2B 26 Mar 07:46:20 07:50:05 69° 286° (WNW) 07:53:48 145.730 - 145.750
KAITUO 1B 26 Mar 07:48:21 07:52:04 80° 283° (WNW) 07:55:45 145.475/437.950
BEESAT 3 26 Mar 07:54:35 07:58:35 62° 235° (SW) 08:02:31 437.485
XW-2C 26 Mar 07:56:33 08:00:14 52° 288° (WNW) 08:03:52 145.795 - 145.815
STRAND 1 26 Mar 07:56:45 08:01:51 64° 258° (WSW) 08:07:00 437.568
SEEDS 26 Mar 07:59:17 08:01:47 15° 89° (E) 08:04:14 437.485
XW-2A 26 Mar 08:01:28 08:04:18 24° 95° (E) 08:07:06 145.665 - 145.685
DOVE 4 26 Mar 08:03:00 08:08:06 48° 291° (WNW) 08:13:09 437.250
CUTE 1.7 + AOD 2 26 Mar 08:04:30 08:08:01 25° 94° (E) 08:11:30 437.475
BEESAT 2 26 Mar 08:09:01 08:13:07 82° 51° (NE) 08:17:10 435.950
YUBILEINY 26 Mar 08:11:44 08:20:18 63° 92° (E) 08:28:51 435.215
CUTE-I 26 Mar 08:30:14 08:35:21 46° 293° (WNW) 08:40:26 437.470
NO-84 26 Mar 08:33:26 08:36:16 76° 146° (SE) 08:39:09 435.350 FM
TIGRISAT 26 Mar 08:38:46 08:39:59 11° 54° (NE) 08:41:11 435.000
AO-7 26 Mar 08:40:43 08:43:46 12° 331° (NNW) 08:46:49 .
UWE-3 26 Mar 08:45:54 08:49:10 20° 91° (E) 08:52:21 435.000/436.395/437.385
UNISAT 6 26 Mar 08:47:28 08:49:52 14° 57° (ENE) 08:52:14 437.425
XW-2F 26 Mar 08:49:54 08:52:14 16° 297° (WNW) 08:54:34 145.980 - 146.000
FO-29 26 Mar 08:49:58 08:55:10 20° 52° (NE) 09:00:05 435.910
LilacSat-2 26 Mar 08:50:37 08:52:50 15° 298° (WNW) 08:55:02 437.200
HO-68 26 Mar 09:13:45 09:20:58 88° 106° (ESE) 09:28:09 435.675
CUBEBUG 2 26 Mar 09:17:59 09:22:27 67° 101° (E) 09:26:44 437.445
NUDT-PHONESAT 26 Mar 09:18:27 09:18:42 10° 302° (WNW) 09:18:57 437.300
AAUSAT CUBESAT 2 26 Mar 09:19:19 09:23:22 50° 99° (E) 09:27:23 437.432
Oscar 11 26 Mar 09:20:48 09:24:10 22° 92° (E) 09:27:31 .
ZACube-1 26 Mar 09:27:15 09:31:04 31° 95° (E) 09:34:47 437.345
SEEDS 26 Mar 09:33:43 09:37:51 59° 287° (WNW) 09:41:58 437.485
XW-2A 26 Mar 09:34:14 09:37:01 24° 293° (WNW) 09:39:46 145.665 - 145.685
PCSat 26 Mar 09:38:51 09:43:02 23° 108° (ESE) 09:47:15 145.827
PRISM 26 Mar 09:39:52 09:43:54 68° 73° (ENE) 09:48:00 437.425
CUTE 1.7 + AOD 2 26 Mar 09:40:04 09:43:56 36° 292° (WNW) 09:47:47 437.475
BEESAT 2 26 Mar 09:48:24 09:50:18 13° 250° (WSW) 09:52:12 435.950
AO-73 26 Mar 09:55:40 09:59:51 55° 100° (E) 10:03:56 145.935
YUBILEINY 26 Mar 10:09:51 10:17:40 35° 295° (WNW) 10:25:31 435.215
TIGRISAT 26 Mar 10:11:09 10:15:49 68° 73° (ENE) 10:20:28 435.000
NO-84 26 Mar 10:11:31 10:14:02 27° 348° (NNW) 10:16:38 435.350 FM
UNISAT 6 26 Mar 10:21:11 10:25:54 89° 72° (ENE) 10:30:34 437.425
UWE-3 26 Mar 10:21:43 10:25:53 45° 290° (WNW) 10:29:56 435.000/436.395/437.385
FO-29 26 Mar 10:31:26 10:39:13 75° 72° (ENE) 10:46:27 435.910
DELFI C3 26 Mar 10:41:58 10:45:51 47° 99° (E) 10:49:42 145.870
AIST 2D 26 Mar 10:43:49 10:46:28 20° 66° (ENE) 10:49:07 435.315
NANOSAT C BR1 26 Mar 10:52:34 10:55:32 19° 61° (ENE) 10:58:31 145.865
AAUSAT CUBESAT 2 26 Mar 10:55:34 10:58:30 19° 297° (WNW) 11:01:26 437.432
CUBEBUG 2 26 Mar 10:55:44 10:58:32 17° 301° (WNW) 11:01:17 437.445
Oscar 11 26 Mar 10:56:25 11:00:29 42° 290° (WNW) 11:04:33 .
EO-79 26 Mar 10:56:35 10:59:51 22° 63° (ENE) 11:03:08 145.935-145.965
HO-68 26 Mar 11:02:26 11:07:54 24° 308° (NW) 11:13:22 435.675
ZACube-1 26 Mar 11:03:36 11:07:18 29° 294° (WNW) 11:10:55 437.345
PRISM 26 Mar 11:17:48 11:19:41 13° 271° (W) 11:21:33 437.425
PCSat 26 Mar 11:20:35 11:25:59 66° 308° (NW) 11:31:25 145.827
POLYITAN 1 26 Mar 11:23:45 11:27:44 38° 68° (ENE) 11:31:43 437.675
QB50P2 26 Mar 11:28:14 11:32:19 45° 70° (ENE) 11:36:25 145.880/145.840
AO-73 26 Mar 11:32:50 11:35:42 18° 299° (WNW) 11:38:31 145.935
ESTCUBE 1 26 Mar 11:37:05 11:39:50 16° 89° (E) 11:42:35 437.505/2401.250
DUCHIFAT 1 26 Mar 11:40:50 11:44:55 47° 70° (ENE) 11:49:01 145.980
RS-15 26 Mar 11:43:46 11:52:04 22° 97° (E) 12:00:30 29.354- 29.394
NO-84 26 Mar 11:49:41 11:52:12 25° 9° (N) 11:54:51 435.350 FM
TIGRISAT 26 Mar 11:50:01 11:52:57 16° 271° (W) 11:55:52 435.000
BUGSAT 1 26 Mar 11:58:34 12:02:10 27° 65° (ENE) 12:05:47 437.445
UNISAT 6 26 Mar 12:01:22 12:03:14 12° 273° (W) 12:05:07 437.425
AIST 2D 26 Mar 12:16:19 12:19:31 32° 263° (W) 12:22:45 435.315
DELFI C3 26 Mar 12:17:32 12:20:20 19° 297° (WNW) 12:23:07 145.870
FO-29 26 Mar 12:18:21 12:24:44 27° 269° (W) 12:30:51 435.910
AO-7 26 Mar 12:19:23 12:21:32 11° 27° (NNE) 12:23:42 .
LO-87 26 Mar 12:21:40 12:25:21 81° 103° (ESE) 12:29:00 145.935 - 145.965
NANOSAT C BR1 26 Mar 12:26:41 12:30:52 55° 259° (W) 12:35:06 145.865
EO-79 26 Mar 12:31:14 12:35:20 45° 261° (W) 12:39:29 145.935-145.965
VELOX 1 26 Mar 12:49:59 12:53:46 26° 94° (E) 12:57:32 145.980
POLYITAN 1 26 Mar 13:00:06 13:03:37 24° 266° (W) 13:07:10 437.675
Oscar 19 26 Mar 13:00:56 13:05:42 41° 67° (ENE) 13:10:31 437.125/150
QB50P2 26 Mar 13:05:05 13:08:19 21° 268° (W) 13:11:35 145.880/145.840
PCSat 26 Mar 13:06:35 13:10:26 19° 331° (NNW) 13:14:17 145.827
UKube-1 26 Mar 13:09:46 13:11:46 13° 89° (E) 13:13:44 .
ESTCUBE 1 26 Mar 13:12:36 13:17:05 65° 287° (WNW) 13:21:33 437.505/2401.250
Gurwin Techsat 1B 26 Mar 13:13:43 13:18:27 34° 64° (ENE) 13:23:12 435.225
DUCHIFAT 1 26 Mar 13:17:42 13:20:50 20° 268° (W) 13:23:58 145.980
50 SAT 26 Mar 13:19:11 13:22:20 30° 97° (E) 13:25:27 437.505
NO-84 26 Mar 13:27:03 13:30:07 71° 29° (NNE) 13:33:25 435.350 FM
BUGSAT 1 26 Mar 13:33:33 13:37:25 34° 263° (W) 13:41:20 437.445
SPROUT 26 Mar 13:35:32 13:39:50 66° 102° (ESE) 13:44:05 437.525
RS-15 26 Mar 13:50:23 14:02:23 75° 121° (ESE) 14:14:43 29.354- 29.394
LO-87 26 Mar 13:57:30 13:58:13 10° 301° (WNW) 13:58:54 145.935 - 145.965
DX 1 26 Mar 14:03:31 14:07:53 59° 102° (ESE) 14:12:13 434.975-435.025
AO-7 26 Mar 14:04:40 14:11:48 33° 52° (NE) 14:18:56 .
VELOX 1 26 Mar 14:26:11 14:30:19 38° 293° (WNW) 14:34:27 145.980
Oscar 19 26 Mar 14:40:40 14:45:09 30° 265° (W) 14:49:39 437.125/150
UKube-1 26 Mar 14:43:58 14:48:20 76° 286° (WNW) 14:52:39 .
ITAMSAT 1 26 Mar 14:47:23 14:52:16 41° 66° (ENE) 14:57:09 435.822/435.867
BEESAT 26 Mar 14:47:33 14:49:15 12° 87° (E) 14:50:56 436.000
50 SAT 26 Mar 14:52:30 14:55:14 21° 294° (WNW) 14:57:58 437.505
Gurwin Techsat 1B 26 Mar 14:53:20 14:58:19 40° 263° (W) 15:03:21 435.225
PCSat 26 Mar 14:54:56 14:56:08 11° 357° (N) 14:57:20 145.827
ITUPSAT 1 26 Mar 15:02:38 15:05:37 16° 90° (E) 15:08:35 437.325
NO-84 26 Mar 15:05:04 15:07:25 19° 225° (SW) 15:09:54 435.350 FM
SPROUT 26 Mar 15:12:36 15:15:16 16° 300° (WNW) 15:17:56 437.525
SO-50 26 Mar 15:29:21 15:33:47 45° 121° (ESE) 15:38:10 436.795
DX 1 26 Mar 15:40:38 15:43:39 18° 300° (WNW) 15:46:40 434.975-435.025
AO-7 26 Mar 15:55:39 16:03:58 74° 253° (WSW) 16:12:20 .
RS-15 26 Mar 16:04:04 16:15:53 51° 329° (NNW) 16:27:53 29.354- 29.394
UKube-1 26 Mar 16:22:27 16:23:35 11° 305° (NW) 16:24:44 .
BEESAT 26 Mar 16:22:57 16:27:45 88° 109° (ESE) 16:32:30 436.000
KKS-1 26 Mar 16:25:30 16:25:49 10° 86° (E) 16:26:08 437.445
ITAMSAT 1 26 Mar 16:27:10 16:31:49 32° 264° (W) 16:36:30 435.822/435.867
O/OREOS (USA 219) 26 Mar 16:31:43 16:34:05 14° 98° (E) 16:36:28 437.305
PCSat 26 Mar 16:38:47 16:42:01 16° 24° (NNE) 16:45:14 145.827
ITUPSAT 1 26 Mar 16:39:12 16:43:57 69° 288° (WNW) 16:48:40 437.325
CUTE-I 26 Mar 16:39:38 16:42:01 13° 51° (NE) 16:44:23 437.470
MOZHAYETS 4 26 Mar 16:40:29 16:45:01 61° 101° (E) 16:49:31
XW-2B 26 Mar 17:00:05 17:00:57 11° 59° (ENE) 17:01:49 145.730 - 145.750
STARS 26 Mar 17:01:08 17:02:10 11° 87° (E) 17:03:11 437.465
XW-2C 26 Mar 17:09:08 17:11:01 13° 61° (ENE) 17:12:55 145.795 - 145.815
SO-50 26 Mar 17:10:10 17:14:23 33° 321° (NW) 17:18:33 436.795
CUBESAT XI-V 26 Mar 17:32:36 17:36:57 38° 97° (E) 17:41:18 437.345
DOVE 4 26 Mar 17:34:29 17:38:52 38° 67° (ENE) 17:43:31 437.250
AO-7 26 Mar 17:53:10 17:58:11 17° 274° (W) 18:03:14 .
KKS-1 26 Mar 17:58:34 18:03:06 83° 104° (ESE) 18:07:35 437.445
XW-2F 26 Mar 17:59:06 18:02:39 40° 70° (ENE) 18:06:13 145.980 - 146.000
LilacSat-2 26 Mar 18:00:24 18:04:04 45° 72° (ENE) 18:07:44 437.200
HO-68 26 Mar 18:00:35 18:06:02 24° 51° (NE) 18:11:29 435.675
BEESAT 26 Mar 18:02:12 18:04:52 15° 304° (NW) 18:07:30 436.000
O/OREOS (USA 219) 26 Mar 18:08:20 18:12:51 76° 296° (WNW) 18:17:28 437.305
CUTE-I 26 Mar 18:15:46 18:21:06 67° 71° (ENE) 18:26:27 437.470
YUBILEINY 26 Mar 18:17:07 18:25:08 38° 67° (ENE) 18:33:07 435.215
MOZHAYETS 4 26 Mar 18:18:36 18:21:46 19° 300° (WNW) 18:24:54
ITUPSAT 1 26 Mar 18:19:23 18:20:54 11° 307° (NW) 18:22:26 437.325
RS-15 26 Mar 18:20:47 18:32:00 37° 2° (N) 18:43:07 29.354- 29.394
PCSat 26 Mar 18:21:32 18:26:48 46° 47° (NE) 18:32:01 145.827
NUDT-PHONESAT 26 Mar 18:24:16 18:27:59 66° 74° (ENE) 18:31:42 437.300
XW-2D 26 Mar 18:24:47 18:28:36 85° 76° (ENE) 18:32:25 145.860 - 145.880
XW-2B 26 Mar 18:30:44 18:34:32 85° 255° (WSW) 18:38:22 145.730 - 145.750
KAITUO 1B 26 Mar 18:31:34 18:35:19 81° 76° (ENE) 18:39:05 145.475/437.950
STARS 26 Mar 18:34:42 18:39:11 88° 95° (E) 18:43:36 437.465
XW-2A 26 Mar 18:36:55 18:39:14 17° 64° (ENE) 18:41:33 145.665 - 145.685
XW-2C 26 Mar 18:40:58 18:44:46 64° 259° (W) 18:48:33 145.795 - 145.815
CUBEBUG 2 26 Mar 18:45:21 18:47:40 14° 57° (ENE) 18:49:59 437.445
SO-50 26 Mar 18:54:06 18:56:11 13° 344° (NNW) 18:58:16 436.795
SEEDS 26 Mar 18:54:37 18:57:26 18° 62° (ENE) 19:00:15 437.485
M-CUBED/EXP-1 PRIME 26 Mar 18:55:13 18:58:45 21° 98° (E) 19:02:17 437.505
CUTE 1.7 + AOD 2 26 Mar 19:00:38 19:04:15 29° 67° (ENE) 19:07:54 437.475
CUBESAT XI-V 26 Mar 19:10:14 19:14:12 29° 295° (WNW) 19:18:10 437.345
DOVE 4 26 Mar 19:12:25 19:16:37 31° 267° (W) 19:21:04 437.250
AO-73 26 Mar 19:22:26 19:23:07 10° 55° (NE) 19:23:47 145.935
XW-2F 26 Mar 19:34:20 19:36:59 18° 268° (W) 19:39:39 145.980 - 146.000
LilacSat-2 26 Mar 19:36:06 19:38:35 17° 269° (W) 19:41:05 437.200
KKS-1 26 Mar 19:36:36 19:39:02 15° 303° (WNW) 19:41:27 437.445
HO-68 26 Mar 19:45:47 19:52:58 88° 255° (WSW) 20:00:10 435.675
UWE-3 26 Mar 19:45:50 19:49:49 29° 66° (ENE) 19:53:45 435.000/436.395/437.385
O/OREOS (USA 219) 26 Mar 19:50:41 19:53:07 14° 319° (NW) 19:55:34 437.305
CUTE-I 26 Mar 19:57:44 20:01:38 20° 270° (W) 20:05:33 437.470
NUDT-PHONESAT 26 Mar 20:01:06 20:02:20 11° 272° (W) 20:03:34 437.300
STRAND 1 26 Mar 20:03:33 20:08:10 33° 96° (E) 20:12:45 437.568
PCSat 26 Mar 20:05:11 20:10:05 35° 247° (WSW) 20:14:57 145.827
XW-2A 26 Mar 20:08:30 20:11:45 37° 262° (W) 20:15:00 145.665 - 145.685
AAUSAT CUBESAT 2 26 Mar 20:12:43 20:16:42 53° 72° (ENE) 20:20:43 437.432
STARS 26 Mar 20:12:43 20:14:52 13° 304° (WNW) 20:17:00 437.465
YUBILEINY 26 Mar 20:13:54 20:22:21 58° 269° (W) 20:30:46 435.215
CUBEBUG 2 26 Mar 20:18:49 20:23:34 85° 78° (ENE) 20:28:19 437.445
Oscar 11 26 Mar 20:19:00 20:22:39 27° 66° (ENE) 20:26:18 .
ZACube-1 26 Mar 20:26:01 20:30:16 41° 69° (ENE) 20:34:27 437.345
SEEDS 26 Mar 20:28:40 20:32:45 54° 260° (W) 20:36:51 437.485
M-CUBED/EXP-1 PRIME 26 Mar 20:28:55 20:33:26 56° 295° (WNW) 20:38:00 437.505
RS-15 26 Mar 20:35:41 20:47:52 56° 35° (NE) 20:59:36 29.354- 29.394
CUTE 1.7 + AOD 2 26 Mar 20:36:17 20:40:02 31° 264° (W) 20:43:49 437.475
SO-50 26 Mar 20:37:14 20:38:40 11° 9° (N) 20:40:05 436.795
AO-73 26 Mar 20:54:03 20:58:32 69° 74° (ENE) 21:02:59 145.935
AO-85 26 Mar 21:11:28 21:15:15 29° 118° (ESE) 21:18:51 145.980
UWE-3 26 Mar 21:21:48 21:26:09 38° 263° (W) 21:30:27 435.000/436.395/437.385
DELFI C3 26 Mar 21:30:50 21:34:33 44° 71° (ENE) 21:38:19 145.870
HO-68 26 Mar 21:36:51 21:41:40 19° 272° (W) 21:46:32 435.675
STRAND 1 26 Mar 21:42:41 21:47:24 38° 294° (WNW) 21:52:05 437.568
AAUSAT CUBESAT 2 26 Mar 21:49:52 21:52:30 16° 270° (W) 21:55:08 437.432
Tancredo 1 26 Mar 21:51:03 21:54:02 39° 148° (SSE) 21:57:03 437.200
ISS 26 Mar 21:51:51 21:54:53 37° 147° (SSE) 21:57:57 437.550
Oscar 11 26 Mar 21:54:44 21:58:41 34° 264° (W) 22:02:39 .
CUBEBUG 2 26 Mar 21:58:33 22:00:47 13° 273° (W) 22:03:01 437.445
TIGRISAT 26 Mar 22:01:56 22:02:37 10° 85° (E) 22:03:18 435.000
ZACube-1 26 Mar 22:02:54 22:06:40 25° 267° (W) 22:10:23 437.345
M-CUBED/EXP-1 PRIME 26 Mar 22:06:00 22:06:58 11° 313° (NW) 22:07:56 437.505
UNISAT 6 26 Mar 22:10:41 22:13:05 14° 88° (E) 22:15:26 437.425
YUBILEINY 26 Mar 22:14:13 22:17:05 12° 292° (WNW) 22:19:59 435.215
SO-50 26 Mar 22:16:58 22:20:43 25° 34° (NNE) 22:24:26 436.795
AO-73 26 Mar 22:32:38 22:35:13 15° 271° (W) 22:37:47 145.935
ESTCUBE 1 26 Mar 22:39:56 22:43:28 23° 63° (ENE) 22:47:00 437.505/2401.250
RS-15 26 Mar 22:48:48 23:00:52 65° 242° (WSW) 23:12:25 29.354- 29.394
AO-85 26 Mar 22:51:29 22:55:33 40° 316° (NW) 22:59:24 145.980
PRISM 26 Mar 22:52:26 22:56:35 66° 102° (ESE) 23:00:44 437.425
SPROUT 26 Mar 22:59:56 23:01:13 11° 56° (NE) 23:02:29 437.525
LO-87 26 Mar 23:01:05 23:04:37 56° 73° (ENE) 23:08:12 145.935 - 145.965
DELFI C3 26 Mar 23:06:53 23:09:35 18° 269° (W) 23:12:18 145.870
FO-29 26 Mar 23:23:16 23:29:07 44° 96° (E) 23:34:21 435.910
BEESAT 3 26 Mar 23:24:38 23:28:31 65° 125° (SE) 23:32:31 437.485
Tancredo 1 26 Mar 23:26:59 23:30:07 57° 347° (NNW) 23:33:17 437.200
ISS 26 Mar 23:28:02 23:31:17 61° 346° (NNW) 23:34:33 437.550
DX 1 26 Mar 23:29:33 23:31:12 12° 55° (NE) 23:32:50 434.975-435.025
TIGRISAT 26 Mar 23:35:34 23:40:02 88° 99° (E) 23:44:23 435.000
AIST 2D 26 Mar 23:38:33 23:40:28 14° 90° (E) 23:42:23 435.315
BEESAT 2 26 Mar 23:41:05 23:44:48 40° 120° (ESE) 23:48:36 435.950
UNISAT 6 26 Mar 23:45:52 23:50:19 69° 287° (WNW) 23:54:38 437.425
VELOX 1 26 Mar 23:50:34 23:54:36 37° 67° (ENE) 23:58:41 145.980
50 SAT 26 Mar 23:56:33 23:59:16 22° 66° (ENE) 00:02:01 437.505
SO-50 26 Mar 23:57:07 00:01:37 70° 235° (SW) 00:06:04 436.795
UKube-1 27 Mar 00:07:21 00:10:24 19° 61° (ENE) 00:13:27 .
NANOSAT C BR1 27 Mar 00:07:55 00:10:53 18° 91° (E) 00:13:48 145.865
EO-79 27 Mar 00:12:26 00:15:45 22° 93° (E) 00:19:02 145.935-145.965
ESTCUBE 1 27 Mar 00:15:44 00:20:01 45° 261° (W) 00:24:21 437.505/2401.250
PRISM 27 Mar 00:28:55 00:31:24 16° 301° (WNW) 00:33:54 437.425
SPROUT 27 Mar 00:32:05 00:36:23 79° 75° (ENE) 00:40:43 437.525
AO-85 27 Mar 00:35:28 00:36:59 12° 338° (NNW) 00:38:28 145.980
LO-87 27 Mar 00:36:55 00:38:26 12° 271° (W) 00:39:58 145.935 - 145.965
POLYITAN 1 27 Mar 00:40:13 00:44:14 41° 98° (E) 00:48:13 437.675
QB50P2 27 Mar 00:44:46 00:48:55 49° 99° (E) 00:53:01 145.880/145.840
DUCHIFAT 1 27 Mar 00:56:25 01:00:33 50° 100° (E) 01:04:38 145.980
O/OREOS (USA 219) 27 Mar 00:58:06 00:59:24 11° 37° (NE) 01:00:42 437.305
DX 1 27 Mar 01:02:18 01:06:39 83° 75° (ENE) 01:11:03 434.975-435.025
BEESAT 3 27 Mar 01:03:22 01:06:31 22° 325° (NW) 01:09:41 437.485
Tancredo 1 27 Mar 01:03:26 01:06:33 48° 6° (N) 01:09:40 437.200
RS-15 27 Mar 01:03:54 01:10:39 17° 266° (W) 01:17:17 29.354- 29.394
ISS 27 Mar 01:04:50 01:08:03 48° 6° (N) 01:11:17 437.550
FO-29 27 Mar 01:08:34 01:14:05 34° 299° (WNW) 01:19:05 435.910
AIST 2D 27 Mar 01:10:37 01:13:58 44° 288° (WNW) 01:17:17 435.315
BUGSAT 1 27 Mar 01:11:27 01:15:00 26° 94° (E) 01:18:29 437.445
Oscar 19 27 Mar 01:11:41 01:12:12 10° 84° (E) 01:12:43 437.125/150
TIGRISAT 27 Mar 01:13:58 01:16:02 13° 304° (WNW) 01:18:06 435.000
BEESAT 2 27 Mar 01:19:08 01:22:40 30° 320° (NW) 01:26:17 435.950
UNISAT 6 27 Mar 01:25:42 01:26:09 10° 306° (NW) 01:26:37 437.425
VELOX 1 27 Mar 01:27:23 01:31:08 27° 266° (W) 01:34:55 145.980
50 SAT 27 Mar 01:29:12 01:32:12 28° 264° (W) 01:35:15 437.505
UKube-1 27 Mar 01:41:49 01:46:03 55° 259° (W) 01:50:20 .
NANOSAT C BR1 27 Mar 01:42:46 01:46:53 50° 289° (WNW) 01:50:57 145.865
EO-79 27 Mar 01:47:41 01:51:42 41° 291° (WNW) 01:55:40 145.935-145.965
BEESAT 27 Mar 01:56:31 02:00:13 23° 61° (ENE) 02:03:56 436.000
SPROUT 27 Mar 02:11:09 02:12:52 12° 273° (W) 02:14:35 437.525
MOZHAYETS 4 27 Mar 02:11:34 02:13:48 14° 57° (ENE) 02:16:01
ITUPSAT 1 27 Mar 02:12:28 02:16:37 30° 64° (ENE) 02:20:46 437.325
POLYITAN 1 27 Mar 02:16:27 02:19:49 23° 296° (WNW) 02:23:10 437.675
QB50P2 27 Mar 02:21:17 02:24:24 20° 298° (WNW) 02:27:30 145.880/145.840
DUCHIFAT 1 27 Mar 02:32:51 02:35:54 20° 298° (WNW) 02:38:55 145.980
O/OREOS (USA 219) 27 Mar 02:35:23 02:39:56 53° 59° (ENE) 02:44:26 437.305
Tancredo 1 27 Mar 02:39:37 02:42:48 66° 206° (SSW) 02:45:59 437.200
ISS 27 Mar 02:41:23 02:44:40 71° 205° (SSW) 02:47:57 437.550
DX 1 27 Mar 02:41:50 02:43:26 12° 272° (W) 02:45:03 434.975-435.025
BUGSAT 1 27 Mar 02:46:36 02:50:25 34° 293° (WNW) 02:54:09 437.445
Oscar 19 27 Mar 02:47:16 02:52:27 71° 103° (ESE) 02:57:37 437.125/150
BEESAT 2 27 Mar 03:01:14 03:01:44 10° 343° (NNW) 03:02:13 435.950
Gurwin Techsat 1B 27 Mar 03:05:07 03:10:24 60° 101° (E) 03:15:39 435.225
KKS-1 27 Mar 03:25:29 03:28:21 17° 59° (ENE) 03:31:14 437.445
BEESAT 27 Mar 03:33:00 03:37:40 53° 259° (W) 03:42:23 436.000
MOZHAYETS 4 27 Mar 03:45:40 03:50:16 89° 82° (E) 03:54:54
ITUPSAT 1 27 Mar 03:49:52 03:54:20 39° 262° (W) 03:58:50 437.325
AO-7 27 Mar 03:53:21 04:00:27 30° 94° (E) 04:07:29 .
AO-85 27 Mar 03:58:57 04:01:25 16° 29° (NNE) 04:03:54 145.980
STARS 27 Mar 04:00:14 04:03:08 17° 59° (ENE) 04:06:03 437.465
O/OREOS (USA 219) 27 Mar 04:15:33 04:18:58 21° 258° (WSW) 04:22:23 437.305
Tancredo 1 27 Mar 04:16:51 04:18:26 13° 224° (SW) 04:20:01 437.200
ISS 27 Mar 04:18:45 04:20:40 15° 223° (SW) 04:22:36 437.550
Oscar 19 27 Mar 04:27:34 04:31:16 20° 302° (WNW) 04:34:58 437.125/150
ITAMSAT 1 27 Mar 04:35:16 04:40:29 68° 103° (ESE) 04:45:38 435.822/435.867
CUBESAT XI-V 27 Mar 04:39:17 04:43:46 56° 71° (ENE) 04:48:17 437.345
Gurwin Techsat 1B 27 Mar 04:45:46 04:49:57 24° 301° (WNW) 04:54:08 435.225
KKS-1 27 Mar 04:59:58 05:04:24 68° 257° (WSW) 05:08:55 437.445
MOZHAYETS 4 27 Mar 05:26:28 05:28:06 12° 274° (W) 05:29:44
STARS 27 Mar 05:34:37 05:39:00 66° 257° (WSW) 05:43:27 437.465
